owner,sensor,date,latitude,longitude,vertical_datum,direction_of_sea_water_velocity,sea_water_speed,upward_sea_water_velocity,qcFlag 
TABS,ioos:station:wmo:42051:1,2009-06-01T00:00:00Z,29.6350,-93.6417,2.0,355.2437535,13.26568506,-99999.0,'11111222,11111222,99999999' 
TABS,ioos:station:wmo:42051:1,2009-06-01T00:30:00Z,29.6350,-93.6417,2.0,356.530512,11.73150459,-99999.0,'11111222,11111222,99999999' 
TABS,ioos:station:wmo:42051:1,2009-06-01T01:00:00Z,29.6350,-93.6417,2.0,5.43631158,12.87791909,-99999.0,'11111222,11111222,99999999' 
TABS,ioos:station:wmo:42051:1,2009-06-01T01:30:00Z,29.6350,-93.6417,2.0,21.04442752,18.26844547,-99999.0,'11111222,11111222,99999999' 
TABS,ioos:station:wmo:42051:1,2009-06-01T02:00:00Z,29.6350,-93.6417,2.0,4.545720817,12.87048173,-99999.0,'11111222,11111222,99999999' 
TABS,ioos:station:wmo:42051:1,2009-06-01T02:30:00Z,29.6350,-93.6417,2.0,16.05508158,11.49847381,-99999.0,'11111222,11111222,99999999' 
TABS,ioos:station:wmo:42051:1,2009-06-01T03:00:00Z,29.6350,-93.6417,2.0,8.717647038,10.62271623,-99999.0,'11111222,11111222,99999999' 
TABS,ioos:station:wmo:42051:1,2009-06-01T03:30:00Z,29.6350,-93.6417,2.0,17.61431781,11.0374816,-99999.0,'11111222,11111222,99999999' 
TABS,ioos:station:wmo:42051:1,2009-06-01T04:00:00Z,29.6350,-93.6417,2.0,38.11088876,5.541299487,-99999.0,'11133222,11111222,99999999' 
TABS,ioos:station:wmo:42051:1,2009-06-01T04:30:00Z,29.6350,-93.6417,2.0,37.51923654,7.766498568,-99999.0,'11133222,11111222,99999999' 
TABS,ioos:station:wmo:42051:1,2009-06-01T05:00:00Z,29.6350,-93.6417,2.0,43.88770821,7.28457274,-99999.0,'11133222,11111222,99999999' 
TABS,ioos:station:wmo:42051:1,2009-06-01T05:30:00Z,29.6350,-93.6417,2.0,23.23031457,7.149636354,-99999.0,'11133222,11111222,99999999' 
TABS,ioos:station:wmo:42051:1,2009-06-01T06:00:00Z,29.6350,-93.6417,2.0,54.78248939,7.491114737,-99999.0,'11133222,11111222,99999999' 
TABS,ioos:station:wmo:42051:1,2009-06-01T06:30:00Z,29.6350,-93.6417,2.0,67.37009358,8.732307828,-99999.0,'11133222,11111222,99999999' 
TABS,ioos:station:wmo:42051:1,2009-06-01T07:00:00Z,29.6350,-93.6417,2.0,77.40345622,3.668296607,-99999.0,'11133222,11111222,99999999' 
TABS,ioos:station:wmo:42051:1,2009-06-01T07:30:00Z,29.6350,-93.6417,2.0,112.6478638,3.142308069,-99999.0,'11133222,11111222,99999999' 
TABS,ioos:station:wmo:42051:1,2009-06-01T08:00:00Z,29.6350,-93.6417,2.0,348.5731356,0.959009906,-99999.0,'11133222,11111222,99999999' 
TABS,ioos:station:wmo:42051:1,2009-06-01T08:30:00Z,29.6350,-93.6417,2.0,310.1682549,3.441700161,-99999.0,'11133222,11111222,99999999' 
TABS,ioos:station:wmo:42051:1,2009-06-01T09:00:00Z,29.6350,-93.6417,2.0,354.4590186,4.038873605,-99999.0,'11133222,11111222,99999999' 
TABS,ioos:station:wmo:42051:1,2009-06-01T09:30:00Z,29.6350,-93.6417,2.0,262.6583704,1.643471935,-99999.0,'11133222,11111222,99999999' 
TABS,ioos:station:wmo:42051:1,2009-06-01T10:00:00Z,29.6350,-93.6417,2.0,330.9985789,2.103806075,-99999.0,'11133222,11111222,99999999' 
TABS,ioos:station:wmo:42051:1,2009-06-01T10:30:00Z,29.6350,-93.6417,2.0,273.1704795,3.254980799,-99999.0,'11133222,11111222,99999999' 
TABS,ioos:station:wmo:42051:1,2009-06-01T11:00:00Z,29.6350,-93.6417,2.0,270.8779661,4.570536074,-99999.0,'11133222,11111222,99999999' 
TABS,ioos:station:wmo:42051:1,2009-06-01T11:30:00Z,29.6350,-93.6417,2.0,304.303174,6.742766495,-99999.0,'11133222,11111222,99999999' 
TABS,ioos:station:wmo:42051:1,2009-06-01T12:00:00Z,29.6350,-93.6417,2.0,323.1483432,6.386000313,-99999.0,'11133222,11111222,99999999' 
TABS,ioos:station:wmo:42051:1,2009-06-01T12:30:00Z,29.6350,-93.6417,2.0,329.1546074,7.489359118,-99999.0,'11133222,11111222,99999999' 
TABS,ioos:station:wmo:42051:1,2009-06-01T13:00:00Z,29.6350,-93.6417,2.0,357.981816,4.542818508,-99999.0,'11133222,11111222,99999999' 
TABS,ioos:station:wmo:42051:1,2009-06-01T13:30:00Z,29.6350,-93.6417,2.0,308.5326608,7.721249899,-99999.0,'11133222,11111222,99999999' 
TABS,ioos:station:wmo:42051:1,2009-06-01T14:00:00Z,29.6350,-93.6417,2.0,321.8650833,10.23449559,-99999.0,'11111222,11111222,99999999' 
TABS,ioos:station:wmo:42051:1,2009-06-01T14:30:00Z,29.6350,-93.6417,2.0,321.1492306,10.76043215,-99999.0,'11111222,11111222,99999999' 
TABS,ioos:station:wmo:42051:1,2009-06-01T15:00:00Z,29.6350,-93.6417,2.0,333.0671139,11.83351596,-99999.0,'11111222,11111222,99999999' 
TABS,ioos:station:wmo:42051:1,2009-06-01T15:30:00Z,29.6350,-93.6417,2.0,311.820493,11.21784293,-99999.0,'11111222,11111222,99999999' 
TABS,ioos:station:wmo:42051:1,2009-06-01T16:00:00Z,29.6350,-93.6417,2.0,320.5658665,8.894908656,-99999.0,'11133222,11111222,99999999' 
TABS,ioos:station:wmo:42051:1,2009-06-01T16:30:00Z,29.6350,-93.6417,2.0,335.8468352,9.140196934,-99999.0,'11133222,11111222,99999999' 
TABS,ioos:station:wmo:42051:1,2009-06-01T17:00:00Z,29.6350,-93.6417,2.0,342.006456,13.14281553,-99999.0,'11111222,11111222,99999999' 
TABS,ioos:station:wmo:42051:1,2009-06-01T17:30:00Z,29.6350,-93.6417,2.0,332.6661985,9.996124249,-99999.0,'11133222,11111222,99999999' 
TABS,ioos:station:wmo:42051:1,2009-06-01T18:00:00Z,29.6350,-93.6417,2.0,331.2403959,8.874756335,-99999.0,'11133222,11111222,99999999' 
TABS,ioos:station:wmo:42051:1,2009-06-01T18:30:00Z,29.6350,-93.6417,2.0,327.2222537,10.45464968,-99999.0,'11111222,11111222,99999999' 
TABS,ioos:station:wmo:42051:1,2009-06-01T19:00:00Z,29.6350,-93.6417,2.0,320.476102,7.039552543,-99999.0,'11133222,11111222,99999999' 
TABS,ioos:station:wmo:42051:1,2009-06-01T19:30:00Z,29.6350,-93.6417,2.0,332.5650343,10.89537975,-99999.0,'11111222,11111222,99999999' 
TABS,ioos:station:wmo:42051:1,2009-06-01T20:00:00Z,29.6350,-93.6417,2.0,324.5575913,10.51926328,-99999.0,'11111222,11111222,99999999' 
TABS,ioos:station:wmo:42051:1,2009-06-01T20:30:00Z,29.6350,-93.6417,2.0,339.0705991,9.15398274,-99999.0,'11133222,11111222,99999999' 
TABS,ioos:station:wmo:42051:1,2009-06-01T21:00:00Z,29.6350,-93.6417,2.0,357.7572191,8.176264428,-99999.0,'11133222,11111222,99999999' 
TABS,ioos:station:wmo:42051:1,2009-06-01T21:30:00Z,29.6350,-93.6417,2.0,25.62856941,4.924479668,-99999.0,'11133222,11111222,99999999' 
TABS,ioos:station:wmo:42051:1,2009-06-01T22:00:00Z,29.6350,-93.6417,2.0,18.2442223,6.64398224,-99999.0,'11133222,11111222,99999999' 
TABS,ioos:station:wmo:42051:1,2009-06-01T22:30:00Z,29.6350,-93.6417,2.0,322.5534678,5.164261806,-99999.0,'11133222,11111222,99999999' 
TABS,ioos:station:wmo:42051:1,2009-06-01T23:00:00Z,29.6350,-93.6417,2.0,9.384937279,6.071260166,-99999.0,'11133222,11111222,99999999' 
TABS,ioos:station:wmo:42051:1,2009-06-01T23:30:00Z,29.6350,-93.6417,2.0,58.53430973,4.502010662,-99999.0,'11133222,11111222,99999999' 
TABS,ioos:station:wmo:42051:1,2009-06-02T00:00:00Z,29.6350,-93.6417,2.0,325.9613941,1.822223916,-99999.0,'11133222,11111222,99999999' 
TABS,ioos:station:wmo:42051:1,2009-06-02T00:30:00Z,29.6350,-93.6417,2.0,292.88913,6.556226049,-99999.0,'11133222,11111222,99999999' 
TABS,ioos:station:wmo:42051:1,2009-06-02T01:00:00Z,29.6350,-93.6417,2.0,338.8230344,6.477437765,-99999.0,'11133222,11111222,99999999' 
TABS,ioos:station:wmo:42051:1,2009-06-02T01:30:00Z,29.6350,-93.6417,2.0,331.4634519,5.589007067,-99999.0,'11133222,11111222,99999999' 
TABS,ioos:station:wmo:42051:1,2009-06-02T02:00:00Z,29.6350,-93.6417,2.0,329.8385127,7.841683493,-99999.0,'11133222,11111222,99999999' 
TABS,ioos:station:wmo:42051:1,2009-06-02T02:30:00Z,29.6350,-93.6417,2.0,328.1822534,7.131703864,-99999.0,'11133222,11111222,99999999' 
TABS,ioos:station:wmo:42051:1,2009-06-02T03:00:00Z,29.6350,-93.6417,2.0,320.6427924,7.695251783,-99999.0,'11133222,11111222,99999999' 
TABS,ioos:station:wmo:42051:1,2009-06-02T03:30:00Z,29.6350,-93.6417,2.0,284.0560275,7.164502774,-99999.0,'11133222,11111222,99999999' 
TABS,ioos:station:wmo:42051:1,2009-06-02T04:00:00Z,29.6350,-93.6417,2.0,278.7815631,8.712117997,-99999.0,'11133222,11111222,99999999' 
TABS,ioos:station:wmo:42051:1,2009-06-02T04:30:00Z,29.6350,-93.6417,2.0,288.0434337,11.55839522,-99999.0,'11111222,11111222,99999999' 
TABS,ioos:station:wmo:42051:1,2009-06-02T05:00:00Z,29.6350,-93.6417,2.0,274.5791307,9.520383396,-99999.0,'11133222,11111222,99999999' 
TABS,ioos:station:wmo:42051:1,2009-06-02T05:30:00Z,29.6350,-93.6417,2.0,289.6586091,8.739364965,-99999.0,'11133222,11111222,99999999' 
TABS,ioos:station:wmo:42051:1,2009-06-02T06:00:00Z,29.6350,-93.6417,2.0,251.7543363,10.50830624,-99999.0,'11111222,11111222,99999999' 
TABS,ioos:station:wmo:42051:1,2009-06-02T06:30:00Z,29.6350,-93.6417,2.0,277.679939,11.15000448,-99999.0,'11111222,11111222,99999999' 
TABS,ioos:station:wmo:42051:1,2009-06-02T07:00:00Z,29.6350,-93.6417,2.0,278.8953721,11.12378083,-99999.0,'11111222,11111222,99999999' 
TABS,ioos:station:wmo:42051:1,2009-06-02T07:30:00Z,29.6350,-93.6417,2.0,257.5509504,10.85521073,-99999.0,'11111222,11111222,99999999' 
TABS,ioos:station:wmo:42051:1,2009-06-02T08:00:00Z,29.6350,-93.6417,2.0,262.3630247,10.83610631,-99999.0,'11111222,11111222,99999999' 
TABS,ioos:station:wmo:42051:1,2009-06-02T08:30:00Z,29.6350,-93.6417,2.0,273.9518668,9.432422806,-99999.0,'11133222,11111222,99999999' 
TABS,ioos:station:wmo:42051:1,2009-06-02T09:00:00Z,29.6350,-93.6417,2.0,276.1054061,9.684926432,-99999.0,'11133222,11111222,99999999' 
TABS,ioos:station:wmo:42051:1,2009-06-02T09:30:00Z,29.6350,-93.6417,2.0,272.4131362,10.68947613,-99999.0,'11111222,11111222,99999999' 
TABS,ioos:station:wmo:42051:1,2009-06-02T10:00:00Z,29.6350,-93.6417,2.0,283.6888146,8.789653008,-99999.0,'11133222,11111222,99999999' 
TABS,ioos:station:wmo:42051:1,2009-06-02T10:30:00Z,29.6350,-93.6417,2.0,270.9629307,13.69193193,-99999.0,'11111222,11111222,99999999' 
TABS,ioos:station:wmo:42051:1,2009-06-02T11:00:00Z,29.6350,-93.6417,2.0,301.8097358,11.15548296,-99999.0,'11111222,11111222,99999999' 
TABS,ioos:station:wmo:42051:1,2009-06-02T11:30:00Z,29.6350,-93.6417,2.0,296.8433733,7.374638974,-99999.0,'11133222,11111222,99999999' 
TABS,ioos:station:wmo:42051:1,2009-06-02T12:00:00Z,29.6350,-93.6417,2.0,292.3928705,5.040039682,-99999.0,'11133222,11111222,99999999' 
TABS,ioos:station:wmo:42051:1,2009-06-02T12:30:00Z,29.6350,-93.6417,2.0,291.9711674,5.024937811,-99999.0,'11133222,11111222,99999999' 
TABS,ioos:station:wmo:42051:1,2009-06-02T13:00:00Z,29.6350,-93.6417,2.0,262.7295274,4.899387717,-99999.0,'11133222,11111222,99999999' 
TABS,ioos:station:wmo:42051:1,2009-06-02T13:30:00Z,29.6350,-93.6417,2.0,295.8188012,6.520927848,-99999.0,'11133222,11111222,99999999' 
TABS,ioos:station:wmo:42051:1,2009-06-02T14:00:00Z,29.6350,-93.6417,2.0,289.3495413,5.945838881,-99999.0,'11133222,11111222,99999999' 
TABS,ioos:station:wmo:42051:1,2009-06-02T14:30:00Z,29.6350,-93.6417,2.0,291.9945851,6.621933252,-99999.0,'11133222,11111222,99999999' 
TABS,ioos:station:wmo:42051:1,2009-06-02T15:00:00Z,29.6350,-93.6417,2.0,287.9533855,6.391189248,-99999.0,'11133222,11111222,99999999' 
TABS,ioos:station:wmo:42051:1,2009-06-02T15:30:00Z,29.6350,-93.6417,2.0,275.3609918,7.492769848,-99999.0,'11133222,11111222,99999999' 
TABS,ioos:station:wmo:42051:1,2009-06-02T16:00:00Z,29.6350,-93.6417,2.0,280.2059319,7.224299274,-99999.0,'11133222,11111222,99999999' 
TABS,ioos:station:wmo:42051:1,2009-06-02T16:30:00Z,29.6350,-93.6417,2.0,296.0816223,7.415065745,-99999.0,'11133222,11111222,99999999' 
TABS,ioos:station:wmo:42051:1,2009-06-02T17:00:00Z,29.6350,-93.6417,2.0,272.523444,8.17792761,-99999.0,'11133222,11111222,99999999' 
TABS,ioos:station:wmo:42051:1,2009-06-02T17:30:00Z,29.6350,-93.6417,2.0,270.7976187,10.78104355,-99999.0,'11111222,11111222,99999999' 
TABS,ioos:station:wmo:42051:1,2009-06-02T18:00:00Z,29.6350,-93.6417,2.0,251.9246703,6.542881628,-99999.0,'11133222,11111222,99999999' 
TABS,ioos:station:wmo:42051:1,2009-06-02T18:30:00Z,29.6350,-93.6417,2.0,248.1547159,4.891216618,-99999.0,'11133222,11111222,99999999' 
TABS,ioos:station:wmo:42051:1,2009-06-02T19:00:00Z,29.6350,-93.6417,2.0,243.5464954,4.579475953,-99999.0,'11133222,11111222,99999999' 
TABS,ioos:station:wmo:42051:1,2009-06-02T19:30:00Z,29.6350,-93.6417,2.0,269.5704062,5.340149811,-99999.0,'11133222,11111222,99999999' 
TABS,ioos:station:wmo:42051:1,2009-06-02T20:00:00Z,29.6350,-93.6417,2.0,265.882409,9.053364016,-99999.0,'11133222,11111222,99999999' 
TABS,ioos:station:wmo:42051:1,2009-06-02T20:30:00Z,29.6350,-93.6417,2.0,277.9130825,8.571610117,-99999.0,'11133222,11111222,99999999' 
TABS,ioos:station:wmo:42051:1,2009-06-02T21:00:00Z,29.6350,-93.6417,2.0,275.2608921,7.853075831,-99999.0,'11133222,11111222,99999999' 
TABS,ioos:station:wmo:42051:1,2009-06-02T21:30:00Z,29.6350,-93.6417,2.0,275.965778,9.622104759,-99999.0,'11133222,11111222,99999999' 
TABS,ioos:station:wmo:42051:1,2009-06-02T22:00:00Z,29.6350,-93.6417,2.0,280.4228933,10.88967401,-99999.0,'11111222,11111222,99999999' 
TABS,ioos:station:wmo:42051:1,2009-06-02T22:30:00Z,29.6350,-93.6417,2.0,301.5591423,9.247702417,-99999.0,'11133222,11111222,99999999' 
TABS,ioos:station:wmo:42051:1,2009-06-02T23:00:00Z,29.6350,-93.6417,2.0,238.0204212,6.967366791,-99999.0,'11133222,11111222,99999999' 
TABS,ioos:station:wmo:42051:1,2009-06-02T23:30:00Z,29.6350,-93.6417,2.0,251.9813616,8.696493546,-99999.0,'11133222,11111222,99999999' 
TABS,ioos:station:wmo:42051:1,2009-06-03T00:00:00Z,29.6350,-93.6417,2.0,259.5455197,13.39230376,-99999.0,'11111222,11111222,99999999' 
TABS,ioos:station:wmo:42051:1,2009-06-03T00:30:00Z,29.6350,-93.6417,2.0,268.9430169,9.761659695,-99999.0,'11133222,11111222,99999999' 
TABS,ioos:station:wmo:42051:1,2009-06-03T01:00:00Z,29.6350,-93.6417,2.0,279.5243576,10.69744829,-99999.0,'11111222,11111222,99999999' 
TABS,ioos:station:wmo:42051:1,2009-06-03T01:30:00Z,29.6350,-93.6417,2.0,287.740868,10.43628286,-99999.0,'11111222,11111222,99999999' 
TABS,ioos:station:wmo:42051:1,2009-06-03T02:00:00Z,29.6350,-93.6417,2.0,293.4582117,8.415515433,-99999.0,'11133222,11111222,99999999' 
TABS,ioos:station:wmo:42051:1,2009-06-03T02:30:00Z,29.6350,-93.6417,2.0,267.9637342,10.69675184,-99999.0,'11111222,11111222,99999999' 
TABS,ioos:station:wmo:42051:1,2009-06-03T03:00:00Z,29.6350,-93.6417,2.0,258.505082,14.00080355,-99999.0,'11111222,11111222,99999999' 
TABS,ioos:station:wmo:42051:1,2009-06-03T05:30:00Z,29.6350,-93.6417,2.0,227.2639011,8.590983646,-99999.0,'11133222,11111222,99999999' 
TABS,ioos:station:wmo:42051:1,2009-06-03T06:00:00Z,29.6350,-93.6417,2.0,267.8046531,8.616321721,-99999.0,'11133222,11111222,99999999' 
TABS,ioos:station:wmo:42051:1,2009-06-03T06:30:00Z,29.6350,-93.6417,2.0,253.3810513,7.482546358,-99999.0,'11133222,11111222,99999999' 
TABS,ioos:station:wmo:42051:1,2009-06-03T07:00:00Z,29.6350,-93.6417,2.0,245.9789822,14.00264618,-99999.0,'11111222,11111222,99999999' 
TABS,ioos:station:wmo:42051:1,2009-06-03T07:30:00Z,29.6350,-93.6417,2.0,236.2361156,21.62777843,-99999.0,'11111222,11111222,99999999' 
TABS,ioos:station:wmo:42051:1,2009-06-03T08:00:00Z,29.6350,-93.6417,2.0,226.6590501,19.29089163,-99999.0,'11111222,11111222,99999999' 
TABS,ioos:station:wmo:42051:1,2009-06-03T08:30:00Z,29.6350,-93.6417,2.0,226.0991391,17.32023383,-99999.0,'11111222,11111222,99999999' 
TABS,ioos:station:wmo:42051:1,2009-06-03T09:00:00Z,29.6350,-93.6417,2.0,222.7846797,17.56351332,-99999.0,'11111222,11111222,99999999' 
TABS,ioos:station:wmo:42051:1,2009-06-03T09:30:00Z,29.6350,-93.6417,2.0,226.830664,15.71286416,-99999.0,'11111222,11111222,99999999' 
TABS,ioos:station:wmo:42051:1,2009-06-03T10:00:00Z,29.6350,-93.6417,2.0,232.984949,8.704027803,-99999.0,'11133222,11111222,99999999' 
TABS,ioos:station:wmo:42051:1,2009-06-03T10:30:00Z,29.6350,-93.6417,2.0,230.0048443,8.915256586,-99999.0,'11133222,11111222,99999999' 
TABS,ioos:station:wmo:42051:1,2009-06-03T11:00:00Z,29.6350,-93.6417,2.0,223.3355179,7.548012984,-99999.0,'11133222,11111222,99999999' 
TABS,ioos:station:wmo:42051:1,2009-06-03T11:30:00Z,29.6350,-93.6417,2.0,207.768713,10.21661392,-99999.0,'11111222,11111222,99999999' 
TABS,ioos:station:wmo:42051:1,2009-06-03T12:00:00Z,29.6350,-93.6417,2.0,213.9913315,6.850642306,-99999.0,'11133222,11111222,99999999' 
TABS,ioos:station:wmo:42051:1,2009-06-03T12:30:00Z,29.6350,-93.6417,2.0,225.2321197,6.972130234,-99999.0,'11133222,11111222,99999999' 
TABS,ioos:station:wmo:42051:1,2009-06-03T13:00:00Z,29.6350,-93.6417,2.0,221.956241,9.722288825,-99999.0,'11133222,11111222,99999999' 
TABS,ioos:station:wmo:42051:1,2009-06-03T13:30:00Z,29.6350,-93.6417,2.0,258.4086306,11.99460712,-99999.0,'11111222,11111222,99999999' 
TABS,ioos:station:wmo:42051:1,2009-06-03T14:00:00Z,29.6350,-93.6417,2.0,255.8900151,20.83867798,-99999.0,'11111222,11111222,99999999' 
TABS,ioos:station:wmo:42051:1,2009-06-03T14:30:00Z,29.6350,-93.6417,2.0,277.5684907,12.83177696,-99999.0,'11111222,11111222,99999999' 
TABS,ioos:station:wmo:42051:1,2009-06-03T15:00:00Z,29.6350,-93.6417,2.0,267.3365845,10.76162163,-99999.0,'11111222,11111222,99999999' 
TABS,ioos:station:wmo:42051:1,2009-06-03T15:30:00Z,29.6350,-93.6417,2.0,276.0167228,8.205193477,-99999.0,'11133222,11111222,99999999' 
TABS,ioos:station:wmo:42051:1,2009-06-03T16:00:00Z,29.6350,-93.6417,2.0,288.3940474,8.778485063,-99999.0,'11133222,11111222,99999999' 
TABS,ioos:station:wmo:42051:1,2009-06-03T16:30:00Z,29.6350,-93.6417,2.0,284.8957757,6.146543744,-99999.0,'11133222,11111222,99999999' 
TABS,ioos:station:wmo:42051:1,2009-06-03T17:00:00Z,29.6350,-93.6417,2.0,272.200789,9.897297611,-99999.0,'11133222,11111222,99999999' 
TABS,ioos:station:wmo:42051:1,2009-06-03T17:30:00Z,29.6350,-93.6417,2.0,281.2969056,8.372198039,-99999.0,'11133222,11111222,99999999' 
TABS,ioos:station:wmo:42051:1,2009-06-03T18:00:00Z,29.6350,-93.6417,2.0,276.9137707,8.058591688,-99999.0,'11133222,11111222,99999999' 
TABS,ioos:station:wmo:42051:1,2009-06-03T18:30:00Z,29.6350,-93.6417,2.0,271.2600167,11.37274813,-99999.0,'11111222,11111222,99999999' 
TABS,ioos:station:wmo:42051:1,2009-06-03T19:00:00Z,29.6350,-93.6417,2.0,263.3701565,12.90629691,-99999.0,'11111222,11111222,99999999' 
TABS,ioos:station:wmo:42051:1,2009-06-03T19:30:00Z,29.6350,-93.6417,2.0,272.9242707,11.17454697,-99999.0,'11111222,11111222,99999999' 
TABS,ioos:station:wmo:42051:1,2009-06-03T20:00:00Z,29.6350,-93.6417,2.0,280.1641084,9.803846184,-99999.0,'11133222,11111222,99999999' 
TABS,ioos:station:wmo:42051:1,2009-06-03T21:30:00Z,29.6350,-93.6417,2.0,220.3328369,3.476348659,-99999.0,'11133222,11111222,99999999' 
TABS,ioos:station:wmo:42051:1,2009-06-03T22:00:00Z,29.6350,-93.6417,2.0,213.2971991,7.28615811,-99999.0,'11133222,11111222,99999999' 
TABS,ioos:station:wmo:42051:1,2009-06-03T22:30:00Z,29.6350,-93.6417,2.0,194.1104584,3.732626421,-99999.0,'11133222,11111222,99999999' 
TABS,ioos:station:wmo:42051:1,2009-06-03T23:00:00Z,29.6350,-93.6417,2.0,272.343453,6.115112427,-99999.0,'11133222,11111222,99999999' 
TABS,ioos:station:wmo:42051:1,2009-06-03T23:30:00Z,29.6350,-93.6417,2.0,263.0118142,5.178465024,-99999.0,'11133222,11111222,99999999' 
TABS,ioos:station:wmo:42051:1,2009-06-04T00:00:00Z,29.6350,-93.6417,2.0,250.581834,5.715076552,-99999.0,'11133222,11111222,99999999' 
TABS,ioos:station:wmo:42051:1,2009-06-04T00:30:00Z,29.6350,-93.6417,2.0,223.4402969,3.897601827,-99999.0,'11133222,11111222,99999999' 
TABS,ioos:station:wmo:42051:1,2009-06-04T01:00:00Z,29.6350,-93.6417,2.0,221.0191482,9.065765274,-99999.0,'11133222,11111222,99999999' 
TABS,ioos:station:wmo:42051:1,2009-06-04T01:30:00Z,29.6350,-93.6417,2.0,224.844692,7.841842896,-99999.0,'11133222,11111222,99999999' 
TABS,ioos:station:wmo:42051:1,2009-06-04T02:00:00Z,29.6350,-93.6417,2.0,235.2410933,10.85737077,-99999.0,'11111222,11111222,99999999' 
TABS,ioos:station:wmo:42051:1,2009-06-04T02:30:00Z,29.6350,-93.6417,2.0,251.8958584,12.58291302,-99999.0,'11111222,11111222,99999999' 
TABS,ioos:station:wmo:42051:1,2009-06-04T03:00:00Z,29.6350,-93.6417,2.0,259.387399,14.17240276,-99999.0,'11111222,11111222,99999999' 
TABS,ioos:station:wmo:42051:1,2009-06-04T03:30:00Z,29.6350,-93.6417,2.0,232.3944326,16.20733476,-99999.0,'11111222,11111222,99999999' 
TABS,ioos:station:wmo:42051:1,2009-06-04T04:00:00Z,29.6350,-93.6417,2.0,240.1266342,17.74817455,-99999.0,'11111222,11111222,99999999' 
TABS,ioos:station:wmo:42051:1,2009-06-04T04:30:00Z,29.6350,-93.6417,2.0,246.5888377,20.56272842,-99999.0,'11111222,11111222,99999999' 
TABS,ioos:station:wmo:42051:1,2009-06-04T05:00:00Z,29.6350,-93.6417,2.0,238.9089315,22.44407494,-99999.0,'11111222,11111222,99999999' 
TABS,ioos:station:wmo:42051:1,2009-06-04T05:30:00Z,29.6350,-93.6417,2.0,247.0350418,21.8627034,-99999.0,'11111222,11111222,99999999' 
TABS,ioos:station:wmo:42051:1,2009-06-04T06:00:00Z,29.6350,-93.6417,2.0,246.3343421,19.18319316,-99999.0,'11111222,11111222,99999999' 
TABS,ioos:station:wmo:42051:1,2009-06-04T06:30:00Z,29.6350,-93.6417,2.0,253.7304326,20.41760025,-99999.0,'11111222,11111222,99999999' 
TABS,ioos:station:wmo:42051:1,2009-06-04T07:00:00Z,29.6350,-93.6417,2.0,252.6577237,19.72671539,-99999.0,'11111222,11111222,99999999' 
TABS,ioos:station:wmo:42051:1,2009-06-04T07:30:00Z,29.6350,-93.6417,2.0,256.5901827,21.94836213,-99999.0,'11111222,11111222,99999999' 
TABS,ioos:station:wmo:42051:1,2009-06-04T08:00:00Z,29.6350,-93.6417,2.0,254.290978,20.94217037,-99999.0,'11111222,11111222,99999999' 
TABS,ioos:station:wmo:42051:1,2009-06-04T08:30:00Z,29.6350,-93.6417,2.0,254.936403,20.1627999,-99999.0,'11111222,11111222,99999999' 
TABS,ioos:station:wmo:42051:1,2009-06-04T09:00:00Z,29.6350,-93.6417,2.0,240.0354168,14.25541651,-99999.0,'11111222,11111222,99999999' 
TABS,ioos:station:wmo:42051:1,2009-06-04T09:30:00Z,29.6350,-93.6417,2.0,239.8706069,15.53942084,-99999.0,'11111222,11111222,99999999' 
TABS,ioos:station:wmo:42051:1,2009-06-04T10:00:00Z,29.6350,-93.6417,2.0,243.996294,15.51011283,-99999.0,'11111222,11111222,99999999' 
TABS,ioos:station:wmo:42051:1,2009-06-04T10:30:00Z,29.6350,-93.6417,2.0,233.9086635,11.91710116,-99999.0,'11111222,11111222,99999999' 
TABS,ioos:station:wmo:42051:1,2009-06-04T11:00:00Z,29.6350,-93.6417,2.0,227.80464,11.27064328,-99999.0,'11111222,11111222,99999999' 
TABS,ioos:station:wmo:42051:1,2009-06-04T11:30:00Z,29.6350,-93.6417,2.0,233.1008597,7.928001009,-99999.0,'11133222,11111222,99999999' 
TABS,ioos:station:wmo:42051:1,2009-06-04T12:00:00Z,29.6350,-93.6417,2.0,229.0730393,7.067708257,-99999.0,'11133222,11111222,99999999' 
TABS,ioos:station:wmo:42051:1,2009-06-04T12:30:00Z,29.6350,-93.6417,2.0,229.8783234,7.898715085,-99999.0,'11133222,11111222,99999999' 
TABS,ioos:station:wmo:42051:1,2009-06-04T13:00:00Z,29.6350,-93.6417,2.0,227.7981553,8.54496928,-99999.0,'11133222,11111222,99999999' 
TABS,ioos:station:wmo:42051:1,2009-06-04T13:30:00Z,29.6350,-93.6417,2.0,240.8835009,9.946944254,-99999.0,'11133222,11111222,99999999' 
TABS,ioos:station:wmo:42051:1,2009-06-04T14:00:00Z,29.6350,-93.6417,2.0,253.6406601,9.515214133,-99999.0,'11133222,11111222,99999999' 
TABS,ioos:station:wmo:42051:1,2009-06-04T14:30:00Z,29.6350,-93.6417,2.0,251.4011277,6.647134721,-99999.0,'11133222,11111222,99999999' 
TABS,ioos:station:wmo:42051:1,2009-06-04T15:00:00Z,29.6350,-93.6417,2.0,236.8236309,7.419413723,-99999.0,'11133222,11111222,99999999' 
TABS,ioos:station:wmo:42051:1,2009-06-04T15:30:00Z,29.6350,-93.6417,2.0,219.9850732,9.383869138,-99999.0,'11133222,11111222,99999999' 
TABS,ioos:station:wmo:42051:1,2009-06-04T16:00:00Z,29.6350,-93.6417,2.0,232.2565739,11.81137164,-99999.0,'11111222,11111222,99999999' 
TABS,ioos:station:wmo:42051:1,2009-06-04T16:30:00Z,29.6350,-93.6417,2.0,227.073341,10.74799051,-99999.0,'11111222,11111222,99999999' 
TABS,ioos:station:wmo:42051:1,2009-06-04T17:00:00Z,29.6350,-93.6417,2.0,208.969482,8.526927934,-99999.0,'11133222,11111222,99999999' 
TABS,ioos:station:wmo:42051:1,2009-06-04T17:30:00Z,29.6350,-93.6417,2.0,235.0764375,11.59869389,-99999.0,'11111222,11111222,99999999' 
TABS,ioos:station:wmo:42051:1,2009-06-04T18:00:00Z,29.6350,-93.6417,2.0,241.2135715,10.15490522,-99999.0,'11111222,11111222,99999999' 
TABS,ioos:station:wmo:42051:1,2009-06-04T18:30:00Z,29.6350,-93.6417,2.0,250.6537461,11.13894968,-99999.0,'11111222,11111222,99999999' 
TABS,ioos:station:wmo:42051:1,2009-06-04T19:00:00Z,29.6350,-93.6417,2.0,252.0543678,9.25,-99999.0,'11133222,11111222,99999999' 